Погода Мыс Болванский

Погода Мыс Болванский : погода сейчас, прогноз погоды и архив. Всё, что Вы хотите узнать о погоде Мыс Болванский!

Поиск расширенной информации на нашем сайте:

Другие новости

Новости СМИ2

Главная страница сайта

Новости сайта

03.07.2017

Напоминаем, что на нашем специализированном сайте Метеоцентр.Азия вы можете получить высокодетализированные автоматические прогнозы погоды по пунктам России, СНГ и мира в авиационном формате (включающие направление и скорость ветра, видимость, явления погоды, количество и форму облачности, нижнюю и верхнюю границу облачности).


Погода Мыс Болванский - сегодня

Время (UTC), дата Ветер
(°,м/с) 
Видим.   Явления Облачность Т
(°С)
Тd
(°С)
f(%) Тe
(°С)
Pmin
(гПа)
dP
(гПа)
Po
(мм)
O2
(г/м3)
Тmin Tmax R s Состояние
почвы
15 14.10.18 280 (З) 10 км    10/10 300 м 
[Sc]
+1.6 -1.3 81 +2  1014  -0.3  759  304    +2.3  0.1     
18 14.10.18 230 (ЮЗ) 2000 м  слаб. ливневой снег  10/10 300 м кучево-дожд. 
[Cb cap]
+0.5 +0.2 98 -1  1013.4  -0.6  759  305           
21 14.10.18 240 (ЮЗ) 10 км  в посл. час ливневой снег  8/8 300 м 
[Sc]
-0.1 -0.3 99 -1  1013.3  759  306           
00 15.10.18 200 (Ю) 10 км  {ливн. осадки}  3/3 300 м 
[Sc]
+0 -0.6 96 -2  1013.3  -0.1  759  306           
03 15.10.18 200 (Ю) 10 км    9/3 600 м средняя 
[Sc|Ac trans]
+0.9 -0.1 93 -2  1012.6  -0.6  758  305  -1.3    0.4    влажная 
06 15.10.18 200 (Ю) 10 км    10/8 600 м средняя 
[Sc|Ac und]
+1.3 +0.9 97 -2  1011.4  -1.2  758  304           
09 15.10.18 200 (Ю) 7{10}  10 км    10/5 600 м средняя 
[Sc|As trans]
+1.7 +0.5 92 -2  1009.6  -1.8  756  303           
15 15.10.18 190 (Ю) 12-15{18}  10 км    10/0 средняя 
[Ac und]
+1.4 +0.2 92 -4  1002.3  -4.3  751  301    +1.8       
03 16.10.18 300 (СЗ) 18-23{24}  10 км    9/9 300 м 
[Sc]
+4.1 +2.7 91 -1  984.1  0.2  737  292  +0.6    0.7    влажная 
15 16.10.18 010 (С) 12-17{19}  2000 м  слаб. ливневой дождь  10/10 300 м кучево-дожд. 
[Cb cap]
+2.5 +1.1 90 -2  989.6  2.6  741  296    +4.2  0.9     
12 17.10.18 030 (СВ) 5{13}  10 км    10/10 300 м 
[Sc]
+2.2 -0.8 81 1006.9  2.7  754  302           
15 17.10.18 040 (СВ) 8-10{11}  10 км    10/10 600 м 
[Sc]
+1.9 +0 87 -2  1008.8  1.9  756  302    +3       
18 17.10.18 340 (С) 4{10}  10 км    8/8 600 м 
[Sc]
+1.6 -2.4 75 -1  1009.9  1.1  756  303           
21 17.10.18 340 (С) 10 км    10/10 600 м 
[Sc]
+1.6 -3.1 71 -1  1010.6  0.7  757  304           
00 18.10.18 290 (З) 10 км    10/10 600 м 
[Sc]
+1.4 -2.3 76 -1  1010.6  757  304           
06 18.10.18 230 (ЮЗ) 10 км    10/3 600 м средняя 
[Sc|Ac und]
+0.8 -0.3 92 -2  1008.7  -1  756  304           
09 18.10.18 230 (ЮЗ) 10 км    9/3 600 м средняя 
[Sc|Ac trans]
+1.6 +1 96 -1  1007.7  -1  755  302           
12 18.10.18 220 (ЮЗ) 10 км    9/3 600 м средняя 
[Sc|Ac trans]
+1.3 +1 98 -1  1006.8  -0.9  754  302           
18 18.10.18 220 (ЮЗ) 10 км    8/0 средняя 
[Ac trans]
+0.3 -0.3 96 -2  1005.7  -0.5  753  303           
21 18.10.18 180 (Ю) 10 км    8/0 средняя 
[Ac trans]
+0.6 -0.3 94 -1  1005.7  -0.1  753  303           
00 19.10.18 180 (Ю) 10 км    10/10 600 м 
[Sc]
+0.5 -0.5 93 -2  1005.5  -0.1  753  303           
03 19.10.18 180 (Ю) 10 км    9/9 600 м 
[Sc]
+0.5 -0.2 95 -2  1005.2  -0.3  753  303  -0.1        влажная 
06 19.10.18 170 (Ю) 10 км    10/10 600 м 
[Sc]
+0.4 +0.1 98 -3  1005.4  0.2  753  303  -0.3         
09 19.10.18 200 (Ю) 10 км    9/9 1000 м 
[Sc]
+0.3 -0.7 93 -2  1005.8  0.4  753  303           
12 19.10.18 180 (Ю) 10 км    4/4 1000 м 
[Sc]
-0.2 -1.6 90 -3  996.7  0.9  747  301           
Время (UTC), дата Ветер
(°,м/с) 
Видим.   Явления Облачность Т
(°С)
Тd
(°С)
f(%) Тe
(°С)
Pmin
(гПа)
dP
(гПа)
Po
(мм)
O2
(г/м3)
Тmin Tmax R s Состояние
почвы

Для получения пояснительной информации подведите курсор к названию столбца.

ПОГОДА Мыс Болванский - архив

Всё, что Вы хотите узнать о погоде Мыс Болванский - удобно и подробно!

Выберите нужную дату (начиная с 1 января 2015* года) и нажмите кнопку "Найти".
Будут отображены архивные сводки погоды по пункту Мыс Болванский, начиная с указанной даты.


Отображать данные в формате CSV (для использования в таблицах Excel)


Внимание! Наш архив погоды предназначен исключительно для личного некоммерческого использования в познавательных целях. Если Вам необходимы официальные справки о состоянии погоды (для производственных, юридических, коммерческих и т.п. целей), обращайтесь в органы Росгидромета.

*Примечание: данная дата относится к архиву по метеостанциям СССР (Россия, СНГ, Балтия).
Архив по метеостанциям Зарубежной Европы и Азии (кроме Китая) хранится 10 дней, по другим регионам земного шара (Китай, Африка, Америка, Австралия, Океания) - 1 день.

Мыс Болванский - район местоположения метеостанции


Название, широта, долгота, высота метеостанции:
Мыс Болванский 70.4°ш. 59.1°д. 13 м над ур. моря [Российская Федерация]

Дополнительная информация

В oтличие oт бoльшинства пoгoдных сайтoв мы публикуем пoдрoбную метеoинфoрмацию в детальнoм прoфессиoнальнoм фoрмате.

Характеристики температуры и влажнoсти вoздуха измеряются на высoте 2 м в тени вдали oт зданий и деревьев.
Скoрoсть ветра измеряется на высoте 10 м (на урoвне рoста челoвека скoрoсть ветра ниже в 1.5-2 раза). Если метеoстанция нахoдится в гoрoде или в лесу, тo скoрoсть ветра занижена на 2-4 м/с пo сравнению с oткрытым местoм. Скoрoсть ветра над акватoриями крупных рек и oзёр, а также на вершинах хoлмoв на 2-5 м/с выше, чем в oбычных услoвиях.
Атмoсфернoе давление в разных тoчках местнoсти мoжет значительнo oтличаться oт давления на метеoстанции, в зависимoсти oт услoвий рельефа (при пoдъёме на 10 м давление пoнижается примернo на 1 мм рт.ст.).